EW2790 Weather Reports


time (UTC)temp
C
wind
direction
speed
KPH
gust
KPH
rain 1hr
cm
rain 24hr
cm
rain mn
cm
humidity
%
barometer
mb
20260504081550 -17 0.0 0.0 0.00 0.00 0.00 1015.4
20260504044549 -17 0.0 0.0 0.00 0.00 0.00 1016.4
20260504043045 -17 0.0 0.0 0.00 0.00 0.00 1016.4
20260504041541 -17 0.0 0.0 0.00 0.00 0.00 1016.4
20260504040036 -17 0.0 0.0 0.00 0.00 0.00 1016.2
20260504034531 -17 0.0 0.0 0.00 0.00 0.00 1016.2
20260504033029 -17 0.0 0.0 0.00 0.00 0.00 1016.1
20260504031523 -17 0.0 0.0 0.00 0.00 0.00 1015.8
20260504030019 -17 0.0 0.0 0.00 0.00 0.00 1015.7
20260504024514 -17 0.0 0.0 0.00 0.00 0.00 1015.9
20260504023009 -17 0.0 0.0 0.00 0.00 0.00 1015.7
20260504021505 -17 0.0 0.0 0.00 0.00 0.00 1015.9
20260504020001 -17 0.0 0.0 0.00 0.00 0.00 1015.6
20260504014557 -17 0.0 0.0 0.00 0.00 0.00 1015.5
20260504013052 -17 0.0 0.0 0.00 0.00 0.00 1015.4
20260504011548 -17 0.0 0.0 0.00 0.00 0.00 1015.3
20260504010044 -17 0.0 0.0 0.00 0.00 0.00 1015.3
20260504004540 -17 0.0 0.0 0.00 0.00 0.00 1015.2
20260504003041 -17 0.0 0.0 0.00 0.00 0.00 1015.0
20260504001530 -17 0.0 0.0 0.00 0.00 0.00 1015.0
20260504000026 -17 0.0 0.0 0.00 0.00 0.00 1014.9
20260503234521 -17 0.0 0.0 0.00 0.00 0.00 1015.0
20260503233017 17 160 0.0 0.0 0.00 0.00 0.00 57 1015.0
20260503231515 17 160 0.0 0.0 0.00 0.00 0.00 52 1015.0
20260503230013 17 160 0.0 0.0 0.00 0.00 0.00 54 1015.1
20260503224518 18 160 0.0 0.0 0.00 0.00 0.00 47 1015.1
20260503223008 18 153 0.0 0.0 0.00 0.00 0.00 47 1015.2
20260503221508 18 91 0.0 0.0 0.00 0.00 0.00 45 1015.3
20260503220013 18 165 0.0 0.0 0.00 0.00 0.00 45 1015.4
20260503214502 18 155 0.0 0.0 0.00 0.00 0.00 48 1015.5
20260503213100 18 290 0.0 0.0 0.00 0.00 0.00 49 1015.7
20260503211603 18 292 0.0 0.0 0.00 0.00 0.00 48 1016.0
20260503210055 18 290 0.0 0.0 0.00 0.00 0.00 46 1016.2
20260503204554 18 231 0.0 0.0 0.00 0.00 0.00 46 1016.4
20260503203047 18 13 0.0 0.0 0.00 0.00 0.00 45 1016.5
20260503201544 18 203 0.0 0.0 0.00 0.00 0.00 42 1016.9
20260503200042 18 327 0.0 0.0 0.00 0.00 0.00 44 1017.1
20260503194538 18 235 0.0 0.0 0.00 0.00 0.00 48 1017.4
20260503193036 17 28 0.0 0.0 0.00 0.00 0.00 47 1017.5
20260503191533 17 355 0.0 0.0 0.00 0.00 0.00 45 1017.7
20260503190037 17 11 0.0 0.0 0.00 0.00 0.00 44 1018.1
20260503184534 17 202 0.0 0.0 0.00 0.00 0.00 47 1018.2
20260503183027 17 61 0.0 0.0 0.00 0.00 0.00 51 1018.3
20260503181526 16 5 0.0 0.0 0.00 0.00 0.00 49 1018.4
20260503180029 16 5 0.0 0.0 0.00 0.00 0.00 49 1018.6
20260503174529 16 304 0.0 0.0 0.00 0.00 0.00 55 1018.7
20260503173031 16 227 0.0 0.0 0.00 0.00 0.00 56 1018.9
20260503171520 15 190 0.0 0.0 0.00 0.00 0.00 51 1019.2